Date String (YYYY-MM-DD hh:mm:ss) UTC,Instrument flags,Ambient pressure (hPa),Sample flow (lpm),Bypass flow (lpm),Sample temperature (°C),Ambient temperature (°C),ASC tube jacket temperature (°C),LED temperature (°C),Box temperature (°C),Sample RH (%),Span deviation,Mass concentration (μg/m³),Mass concentration (μg/m³),Mass concentration (μg/m³)
DateTimeUTC,F1_M11,P_M11,Q1_M11,Q2_M11,T1_M11,T2_M11,T3_M11,T4_M11,T5_M11,U1_M11,ZSPAN_M11,X0_M11,X2_M11,X1_M11
2022-04-30 12:00:00,,0823.8,4.99,0.00,22.4,21.6,00.0,31.3,24.2,13.1,0000.0,0005.49,0002.14,0001.45
2022-04-30 12:01:00,,0823.9,5.00,0.00,22.4,21.6,00.0,31.3,24.2,12.8,0000.0,0006.28,0002.09,0001.43
2022-04-30 12:02:00,,0823.9,5.00,0.00,22.4,21.6,00.0,31.3,24.2,13.3,0000.0,0006.10,0002.08,0001.42
2022-04-30 12:03:00,,0823.9,5.02,0.00,22.4,21.6,00.0,31.3,24.3,13.5,0000.0,0006.47,0002.00,0001.42
2022-04-30 12:04:00,,0823.8,5.00,0.00,22.4,21.6,00.0,31.3,24.3,13.7,0000.0,0006.43,0001.96,0001.42
2022-04-30 12:05:00,,0823.8,5.00,0.00,22.4,21.6,00.0,31.4,24.3,13.9,0000.0,0006.09,0001.95,0001.40
2022-04-30 12:06:00,,0823.8,4.99,0.00,22.4,21.6,00.0,31.4,24.3,13.5,0000.0,0006.14,0001.95,0001.39
2022-04-30 12:07:00,,0823.9,5.01,0.00,22.4,21.5,00.0,31.4,24.3,11.9,0000.0,0006.18,0001.97,0001.40
2022-04-30 12:08:00,,0823.9,5.00,0.00,22.4,21.5,00.0,31.4,24.2,11.5,0000.0,0006.06,0001.99,0001.40
2022-04-30 12:09:00,,0823.9,5.00,0.00,22.4,21.6,00.0,31.4,24.3,11.3,0000.0,0006.01,0002.00,0001.40
2022-04-30 12:10:00,,0823.9,4.99,0.00,22.4,21.6,00.0,31.4,24.3,11.0,0000.0,0006.12,0002.05,0001.42
2022-04-30 12:11:00,,0823.9,5.00,0.00,22.4,21.6,00.0,31.4,24.2,10.7,0000.0,0005.96,0002.05,0001.43
2022-04-30 12:12:00,,0823.9,5.00,0.00,22.4,21.6,00.0,31.4,24.2,11.8,0000.0,0004.68,0002.12,0001.45
2022-04-30 12:13:00,,0824.0,5.00,0.00,22.4,21.5,00.0,31.4,24.2,13.4,0000.0,0004.68,0002.14,0001.46
2022-04-30 12:14:00,,0823.9,5.00,0.00,22.4,21.5,00.0,31.4,24.2,13.6,0000.0,0004.00,0002.15,0001.45
2022-04-30 12:15:00,,0824.0,5.00,0.00,22.4,21.6,00.0,31.4,24.2,13.9,0000.0,0004.73,0002.18,0001.43
2022-04-30 12:16:00,,0823.9,5.00,0.00,22.4,21.6,00.0,31.4,24.2,14.0,0000.0,0005.22,0002.17,0001.43
2022-04-30 12:17:00,,0823.9,5.00,0.00,22.4,21.6,00.0,31.4,24.2,14.2,0000.0,0005.19,0002.16,0001.42
2022-04-30 12:18:00,,0824.0,5.00,0.00,22.4,21.6,00.0,31.4,24.3,14.3,0000.0,0005.08,0002.13,0001.41
2022-04-30 12:19:00,,0824.0,5.00,0.00,22.4,21.6,00.0,31.4,24.3,14.3,0000.0,0004.82,0002.02,0001.39
2022-04-30 12:20:00,,0824.0,5.00,0.00,22.4,21.6,00.0,31.4,24.3,14.3,0000.0,0004.77,0002.00,0001.38
2022-04-30 12:21:00,,0824.0,5.01,0.00,22.5,21.6,00.0,31.4,24.3,14.3,0000.0,0004.65,0001.94,0001.35
2022-04-30 12:22:00,,0824.1,5.00,0.00,22.5,21.6,00.0,31.4,24.3,14.3,0000.0,0004.50,0001.86,0001.31
2022-04-30 12:23:00,,0824.0,5.00,0.00,22.5,21.6,00.0,31.4,24.3,14.4,0000.0,0004.67,0001.79,0001.28
2022-04-30 12:24:00,,0824.0,5.00,0.00,22.5,21.6,00.0,31.4,24.3,14.4,0000.0,0005.18,0001.72,0001.24
2022-04-30 12:25:00,,0823.9,5.00,0.00,22.5,21.6,00.0,31.4,24.3,14.5,0000.0,0006.38,0001.75,0001.23
2022-04-30 12:26:00,,0823.9,5.00,0.00,22.4,21.6,00.0,31.4,24.2,14.6,0000.0,0005.79,0001.70,0001.22
2022-04-30 12:27:00,,0824.0,4.99,0.00,22.4,21.6,00.0,31.4,24.2,14.7,0000.0,0004.92,0001.68,0001.22
2022-04-30 12:28:00,,0824.0,5.01,0.00,22.4,21.5,00.0,31.4,24.1,14.7,0000.0,0004.96,0001.65,0001.20
2022-04-30 12:29:00,,0824.0,5.01,0.00,22.3,21.5,00.0,31.4,24.1,14.7,0000.0,0004.90,0001.62,0001.19
2022-04-30 12:30:00,,0824.0,4.99,0.00,22.3,21.5,00.0,31.4,24.1,14.7,0000.0,0004.85,0001.61,0001.18
2022-04-30 12:31:00,,0824.1,5.00,0.00,22.3,21.5,00.0,31.4,24.1,14.8,0000.0,0004.86,0001.59,0001.16
2022-04-30 12:32:00,,0824.1,5.01,0.00,22.3,21.5,00.0,31.3,24.1,14.8,0000.0,0005.76,0001.63,0001.15
2022-04-30 12:33:00,,0824.1,5.00,0.00,22.3,21.5,00.0,31.3,24.1,14.7,0000.0,0006.06,0001.61,0001.14
2022-04-30 12:34:00,,0824.0,5.00,0.00,22.3,21.6,00.0,31.3,24.1,14.6,0000.0,0005.68,0001.61,0001.13
2022-04-30 12:35:00,,0824.0,5.00,0.00,22.4,21.6,00.0,31.3,24.2,14.6,0000.0,0005.10,0001.61,0001.14
2022-04-30 12:36:00,,0824.1,4.99,0.00,22.4,21.6,00.0,31.3,24.2,14.7,0000.0,0003.81,0001.57,0001.14
2022-04-30 12:37:00,,0824.1,5.00,0.00,22.4,21.6,00.0,31.3,24.2,14.7,0000.0,0003.74,0001.57,0001.14
2022-04-30 12:38:00,,0824.1,5.00,0.00,22.4,21.6,00.0,31.3,24.2,14.8,0000.0,0003.67,0001.54,0001.14
2022-04-30 12:39:00,,0824.1,5.00,0.00,22.4,21.6,00.0,31.3,24.2,14.8,0000.0,0003.55,0001.53,0001.14
2022-04-30 12:40:00,,0824.2,5.00,0.00,22.4,21.6,00.0,31.3,24.2,14.8,0000.0,0003.69,0001.56,0001.16
2022-04-30 12:41:00,,0824.3,5.00,0.00,22.4,21.6,00.0,31.3,24.3,14.8,0000.0,0003.77,0001.58,0001.16
2022-04-30 12:42:00,,0824.2,5.00,0.00,22.4,21.6,00.0,31.3,24.2,14.8,0000.0,0003.79,0001.59,0001.17
2022-04-30 12:43:00,,0824.2,4.99,0.00,22.4,21.7,00.0,31.3,24.2,14.8,0000.0,0003.16,0001.57,0001.17
2022-04-30 12:44:00,,0824.2,5.00,0.00,22.4,21.7,00.0,31.4,24.3,14.8,0000.0,0002.71,0001.61,0001.20
2022-04-30 12:45:00,,0824.2,5.00,0.00,22.4,21.7,00.0,31.4,24.3,14.8,0000.0,0002.75,0001.64,0001.21
2022-04-30 12:46:00,,0824.1,5.00,0.00,22.4,21.7,00.0,31.4,24.3,14.9,0000.0,0003.08,0001.65,0001.22
2022-04-30 12:47:00,,0824.1,5.00,0.00,22.4,21.7,00.0,31.4,24.3,14.9,0000.0,0003.98,0001.65,0001.22
2022-04-30 12:48:00,,0824.2,5.00,0.00,22.4,21.7,00.0,31.4,24.2,14.9,0000.0,0004.00,0001.67,0001.23
2022-04-30 12:49:00,,0824.2,5.01,0.00,22.4,21.7,00.0,31.4,24.2,14.9,0000.0,0004.02,0001.68,0001.24
2022-04-30 12:50:00,,0824.2,5.01,0.00,22.4,21.7,00.0,31.4,24.2,14.9,0000.0,0004.01,0001.71,0001.25
2022-04-30 12:51:00,,0824.1,5.00,0.00,22.4,21.6,00.0,31.4,24.2,14.9,0000.0,0003.83,0001.68,0001.24
2022-04-30 12:52:00,,0824.1,5.00,0.00,22.4,21.6,00.0,31.4,24.1,14.9,0000.0,0004.05,0001.65,0001.24
2022-04-30 12:53:00,,0824.2,4.99,0.00,22.3,21.6,00.0,31.4,24.1,15.0,0000.0,0004.56,0001.66,0001.25
2022-04-30 12:54:00,,0824.2,5.00,0.00,22.3,21.6,00.0,31.4,24.1,14.8,0000.0,0004.50,0001.66,0001.24
2022-04-30 12:55:00,,0824.2,5.00,0.00,22.3,21.6,00.0,31.3,24.1,14.9,0000.0,0004.46,0001.62,0001.23
2022-04-30 12:56:00,,0824.2,5.00,0.00,22.3,21.6,00.0,31.3,24.1,15.0,0000.0,0005.14,0001.62,0001.21
2022-04-30 12:57:00,,0824.2,5.00,0.00,22.3,21.6,00.0,31.3,24.1,15.0,0000.0,0005.49,0001.56,0001.19
2022-04-30 12:58:00,,0824.1,5.01,0.00,22.3,21.6,00.0,31.3,24.1,15.0,0000.0,0004.27,0001.54,0001.18
2022-04-30 12:59:00,,0824.1,5.01,0.00,22.3,21.6,00.0,31.3,24.1,15.0,0000.0,0004.17,0001.49,0001.16
